Showing default

TYVAK-0173, 48892

Orbit data source: Space-Track

TYVAK-0173, 48892 is a payload satellite owned by Echostar AU (AU) in SSO that was launched on Wed, 30 Jun 2021 UTC via an FALCON 9 launch vehicle from the Air Force Eastern Test Range (AFETR). Payload-class satellites include a variety of spacecraft equipped with specific instruments for various scientific and technological missions. These include communications satellites like Starlink; space stations such as the ISS; scientific satellites like the Hubble; Earth observation satellites from companies like Planet Labs, Umbra, and HawkEye 360; GPS; miniature CubeSats for education and research; and military/defense satellites.

Loading next visibility...
Identifier
48892, 2021-059P
Orbit
SSO
Country
Flag of AUAU / AUS
Related business
Manufacturer
Tyvak NSS
Mission
Operational Commercial Technology
Bus & Motor
CUBESAT 12U, Unknown motor
Mass
11 kg wet, 11 kg dry
Launch date (UTC)
2021-06-30 (5 years ago)
Launch vehicle
FALCON 9
Launch site
Air Force Eastern Test Range (AFETR)
Object type
Payload
Rocket body
Debris
Shape & HBR
Box + 2 Pan, 0.8 m
Radar Cross Section
0.155 m², Medium (>0.1 m² and < 1m²)

Expand to show TLE details & history
Last TLE update: 3 days ago

TLE from 3 days ago
0 TYVAK-0173
1 48892U 21059P   26170.76364613  .00001265  00000-0  16382-3 0  9997
2 48892  96.0085 246.4800 0009844  31.9739 328.2074 14.81897662268624
Epoch: 2026-06-19T18:19Z
TLE epoch observation values (Epoch: 2026-06-19T18:19:39.025Z)
Latitude
-0.00007°
Longitude
63.57945°
Altitude
620.557 km
Speed
7.552 km/s
True Right ascension
16h 25m 55s
True Declination
0° 00' 00"
Sunlit
Object was in full shadow at epoch
Visualization orbit readout
Latitude
Unknown
Longitude
Unknown
Altitude
Unknown
Speed
Unknown
Apparent Right ascension
Unknown
Apparent Declination
Unknown
Sunlit
N/A
Visualization observer readout
Local Sidereal Time
21:37:09
Azimuth
Unknown
Elevation
Unknown
Doppler factor
Unknown
Orbital elements
Apogee altitude
627.193 km
Perigee altitude
613.415 km
Semi-major axis
6,998.441 km
Eccentricity
0.00098
Inclination
96.0085°
RAAN
246.48°
Arg. of periapsis
31.9739°
True anomaly
328.14791°
Mean anomaly
328.2074°
Eccentric anomaly
328.17766°
Mean motion
3.70716 °/min
Orbital period
97.11 mins
BSTAR
0.00016382
Loading maneuver chart data...
Computing Atmospheric mass density...

Documentation

Showing up to 5 results
|